Powrót do katalogu

STARLINK-4047

AktywnyŁącznośćVLEO
NORAD 53243·PAYLOAD·🇺🇸 United States

Wystrzelony Jul 24, 2022 z Cape Canaveral Space Force Station

Loading…

Następne Przeloty (najbliższe 24 godziny)

TLE

ŚwieżeSource: CelesTrak SupGP

Epoka: Sep 15, 2026, 02:38 UTC

1 53243C 22086B   26258.11020833 -.00033434  00000+0 -95579-3 0  2580
2 53243  53.1597  61.5282 0001314  73.9085 269.7133 15.35440543    10

Śledź STARLINK-4047 w czasie rzeczywistym z AllMySat

Download on the App Store